Year,Month,Day,Hour,Minute,Value (Times are PST for temperature in C)
2018,04,27,00,00,18.20
2018,04,27,00,01,18.20
2018,04,27,00,02,18.20
2018,04,27,00,03,18.20
2018,04,27,00,04,18.20
2018,04,27,00,05,18.20
2018,04,27,00,06,18.20
2018,04,27,00,07,18.20
2018,04,27,00,08,18.20
2018,04,27,00,09,18.20
2018,04,27,00,10,18.20
2018,04,27,00,11,18.30
2018,04,27,00,12,18.30
2018,04,27,00,13,18.20
2018,04,27,00,14,18.20
2018,04,27,00,15,18.20
2018,04,27,00,16,18.20
2018,04,27,00,17,18.20
2018,04,27,00,18,18.20
2018,04,27,00,19,18.20
2018,04,27,00,20,18.10
2018,04,27,00,21,18.10
2018,04,27,00,22,18.10
2018,04,27,00,23,18.10
2018,04,27,00,24,18.00
2018,04,27,00,25,18.00
2018,04,27,00,26,18.00
2018,04,27,00,27,18.00
2018,04,27,00,28,18.00
2018,04,27,00,29,18.00
2018,04,27,00,30,18.00
2018,04,27,00,31,18.10
2018,04,27,00,32,18.10
2018,04,27,00,33,18.10
2018,04,27,00,34,18.10
2018,04,27,00,35,18.20
2018,04,27,00,36,18.20
2018,04,27,00,37,18.20
2018,04,27,00,38,18.20
2018,04,27,00,39,18.20
2018,04,27,00,40,18.20
2018,04,27,00,41,18.20
2018,04,27,00,42,18.20
2018,04,27,00,43,18.20
2018,04,27,00,44,18.30
2018,04,27,00,45,18.30
2018,04,27,00,46,18.30
2018,04,27,00,47,18.30
2018,04,27,00,48,18.30
2018,04,27,00,49,18.30
2018,04,27,00,50,18.30
2018,04,27,00,51,18.30
2018,04,27,00,52,18.30
2018,04,27,00,53,18.30
2018,04,27,00,54,18.30
2018,04,27,00,55,18.30
2018,04,27,00,56,18.30
2018,04,27,00,57,18.40
2018,04,27,00,58,18.40
2018,04,27,00,59,18.40
2018,04,27,01,00,18.40
2018,04,27,01,01,18.40
2018,04,27,01,02,18.40
2018,04,27,01,03,18.40
2018,04,27,01,04,18.30
2018,04,27,01,05,18.30
2018,04,27,01,06,18.30
2018,04,27,01,07,18.30
2018,04,27,01,08,18.30
2018,04,27,01,09,18.30
2018,04,27,01,10,18.30
2018,04,27,01,11,18.30
2018,04,27,01,12,18.30
2018,04,27,01,13,18.40
2018,04,27,01,14,18.40
2018,04,27,01,15,18.40
2018,04,27,01,16,18.40
2018,04,27,01,17,18.40
2018,04,27,01,18,18.30
2018,04,27,01,19,18.30
2018,04,27,01,20,18.40
2018,04,27,01,21,18.40
2018,04,27,01,22,18.40
2018,04,27,01,23,18.40
2018,04,27,01,24,18.40
2018,04,27,01,25,18.40
2018,04,27,01,26,18.40
2018,04,27,01,27,18.40
2018,04,27,01,28,18.40
2018,04,27,01,29,18.40
2018,04,27,01,30,18.30
2018,04,27,01,31,18.30
2018,04,27,01,32,18.40
2018,04,27,01,33,18.40
2018,04,27,01,34,18.40
2018,04,27,01,35,18.40
2018,04,27,01,36,18.40
2018,04,27,01,37,18.30
2018,04,27,01,38,18.30
2018,04,27,01,39,18.30
2018,04,27,01,40,18.30
2018,04,27,01,41,18.30
2018,04,27,01,42,18.30
2018,04,27,01,43,18.30
2018,04,27,01,44,18.30
2018,04,27,01,45,18.30
2018,04,27,01,46,18.30
2018,04,27,01,47,18.30
2018,04,27,01,48,18.30
2018,04,27,01,49,18.30
2018,04,27,01,50,18.30
2018,04,27,01,51,18.30
2018,04,27,01,52,18.30
2018,04,27,01,53,18.30
2018,04,27,01,54,18.30
2018,04,27,01,55,18.30
2018,04,27,01,56,18.30
2018,04,27,01,57,18.30
2018,04,27,01,58,18.30
2018,04,27,01,59,18.30
2018,04,27,02,00,18.30
2018,04,27,02,01,18.30
2018,04,27,02,02,18.20
2018,04,27,02,03,18.20
2018,04,27,02,04,18.20
2018,04,27,02,05,18.20
2018,04,27,02,06,18.20
2018,04,27,02,07,18.20
2018,04,27,02,08,18.20
2018,04,27,02,09,18.20
2018,04,27,02,10,18.20
2018,04,27,02,11,18.20
2018,04,27,02,12,18.20
2018,04,27,02,13,18.20
2018,04,27,02,14,18.10
2018,04,27,02,15,18.10
2018,04,27,02,16,18.10
2018,04,27,02,17,18.10
2018,04,27,02,18,18.10
2018,04,27,02,19,18.10
2018,04,27,02,20,18.10
2018,04,27,02,21,18.00
2018,04,27,02,22,18.00
2018,04,27,02,23,17.90
2018,04,27,02,24,17.90
2018,04,27,02,25,17.90
2018,04,27,02,26,17.90
2018,04,27,02,27,17.90
2018,04,27,02,28,17.90
2018,04,27,02,29,17.90
2018,04,27,02,30,17.90
2018,04,27,02,31,17.90
2018,04,27,02,32,17.90
2018,04,27,02,33,17.90
2018,04,27,02,34,17.90
2018,04,27,02,35,17.90
2018,04,27,02,36,17.90
2018,04,27,02,37,17.90
2018,04,27,02,38,17.90
2018,04,27,02,39,17.90
2018,04,27,02,40,17.80
2018,04,27,02,41,17.80
2018,04,27,02,42,17.80
2018,04,27,02,43,17.80
2018,04,27,02,44,17.80
2018,04,27,02,45,17.80
2018,04,27,02,46,17.80
2018,04,27,02,47,17.80
2018,04,27,02,48,17.80
2018,04,27,02,49,17.80
2018,04,27,02,50,17.80
2018,04,27,02,51,17.70
2018,04,27,02,52,17.70
2018,04,27,02,53,17.70
2018,04,27,02,54,17.70
2018,04,27,02,55,17.70
2018,04,27,02,56,17.60
2018,04,27,02,57,17.60
2018,04,27,02,58,17.60
2018,04,27,02,59,17.60
2018,04,27,03,00,17.60
2018,04,27,03,01,17.60
2018,04,27,03,02,17.60
2018,04,27,03,03,17.50
2018,04,27,03,04,17.50
2018,04,27,03,05,17.50
2018,04,27,03,06,17.50
2018,04,27,03,07,17.40
2018,04,27,03,08,17.40
2018,04,27,03,09,17.40
2018,04,27,03,10,17.40
2018,04,27,03,11,17.30
2018,04,27,03,12,17.30
2018,04,27,03,13,17.30
2018,04,27,03,14,17.30
2018,04,27,03,15,17.20
2018,04,27,03,16,17.20
2018,04,27,03,17,17.10
2018,04,27,03,18,17.10
2018,04,27,03,19,17.10
2018,04,27,03,20,17.00
2018,04,27,03,21,17.00
2018,04,27,03,22,16.90
2018,04,27,03,23,16.90
2018,04,27,03,24,16.80
2018,04,27,03,25,16.80
2018,04,27,03,26,16.70
2018,04,27,03,27,16.70
2018,04,27,03,28,16.60
2018,04,27,03,29,16.60
2018,04,27,03,30,16.50
2018,04,27,03,31,16.50
2018,04,27,03,32,16.40
2018,04,27,03,33,16.40
2018,04,27,03,34,16.30
2018,04,27,03,35,16.30
2018,04,27,03,36,16.20
2018,04,27,03,37,16.20
2018,04,27,03,38,16.10
2018,04,27,03,39,16.10
2018,04,27,03,40,16.10
2018,04,27,03,41,16.00
2018,04,27,03,42,16.00
2018,04,27,03,43,15.90
2018,04,27,03,44,15.90
2018,04,27,03,45,15.90
2018,04,27,03,46,15.90
2018,04,27,03,47,15.80
2018,04,27,03,48,15.80
2018,04,27,03,49,15.80
2018,04,27,03,50,15.70
2018,04,27,03,51,15.70
2018,04,27,03,52,15.70
2018,04,27,03,53,15.60
2018,04,27,03,54,15.60
2018,04,27,03,55,15.60
2018,04,27,03,56,15.60
2018,04,27,03,57,15.60
2018,04,27,03,58,15.60
2018,04,27,03,59,15.50
2018,04,27,04,00,15.50
2018,04,27,04,01,15.40
2018,04,27,04,02,15.40
2018,04,27,04,03,15.30
2018,04,27,04,04,15.30
2018,04,27,04,05,15.30
2018,04,27,04,06,15.30
2018,04,27,04,07,15.30
2018,04,27,04,08,15.30
2018,04,27,04,09,15.30
2018,04,27,04,10,15.30
2018,04,27,04,11,15.30
2018,04,27,04,12,15.30
2018,04,27,04,13,15.20
2018,04,27,04,14,15.20
2018,04,27,04,15,15.20
2018,04,27,04,16,15.20
2018,04,27,04,17,15.20
2018,04,27,04,18,15.20
2018,04,27,04,19,15.20
2018,04,27,04,20,15.20
2018,04,27,04,21,15.20
2018,04,27,04,22,15.20
2018,04,27,04,23,15.10
2018,04,27,04,24,15.10
2018,04,27,04,25,15.10
2018,04,27,04,26,15.10
2018,04,27,04,27,15.10
2018,04,27,04,28,15.10
2018,04,27,04,29,15.10
2018,04,27,04,30,15.00
2018,04,27,04,31,15.00
2018,04,27,04,32,15.00
2018,04,27,04,33,14.90
2018,04,27,04,34,14.90
2018,04,27,04,35,14.90
2018,04,27,04,36,14.90
2018,04,27,04,37,14.90
2018,04,27,04,38,14.90
2018,04,27,04,39,14.90
2018,04,27,04,40,14.90
2018,04,27,04,41,14.90
2018,04,27,04,42,14.90
2018,04,27,04,43,14.90
2018,04,27,04,44,14.90
2018,04,27,04,45,14.80
2018,04,27,04,46,14.80
2018,04,27,04,47,14.80
2018,04,27,04,48,14.70
2018,04,27,04,49,14.70
2018,04,27,04,50,14.70
2018,04,27,04,51,14.60
2018,04,27,04,52,14.60
2018,04,27,04,53,14.50
2018,04,27,04,54,14.50
2018,04,27,04,55,14.40
2018,04,27,04,56,14.40
2018,04,27,04,57,14.40
2018,04,27,04,58,14.30
2018,04,27,04,59,14.30
2018,04,27,05,00,14.30
2018,04,27,05,01,14.20
2018,04,27,05,02,14.20
2018,04,27,05,03,14.20
2018,04,27,05,04,14.20
2018,04,27,05,05,14.10
2018,04,27,05,06,14.10
2018,04,27,05,07,14.10
2018,04,27,05,08,14.10
2018,04,27,05,09,14.00
2018,04,27,05,10,14.00
2018,04,27,05,11,14.00
2018,04,27,05,12,13.90
2018,04,27,05,13,13.90
2018,04,27,05,14,13.90
2018,04,27,05,15,13.80
2018,04,27,05,16,13.80
2018,04,27,05,17,13.80
2018,04,27,05,18,13.80
2018,04,27,05,19,13.80
2018,04,27,05,20,13.70
2018,04,27,05,21,13.70
2018,04,27,05,22,13.70
2018,04,27,05,23,13.70
2018,04,27,05,24,13.70
2018,04,27,05,25,13.60
2018,04,27,05,26,13.60
2018,04,27,05,27,13.60
2018,04,27,05,28,13.60
2018,04,27,05,29,13.50
2018,04,27,05,30,13.50
2018,04,27,05,31,13.50
2018,04,27,05,32,13.50
2018,04,27,05,33,13.40
2018,04,27,05,34,13.40
2018,04,27,05,35,13.40
2018,04,27,05,36,13.40
2018,04,27,05,37,13.40
2018,04,27,05,38,13.40
2018,04,27,05,39,13.40
2018,04,27,05,40,13.40
2018,04,27,05,41,13.40
2018,04,27,05,42,13.40
2018,04,27,05,43,13.40
2018,04,27,05,44,13.40
2018,04,27,05,45,13.40
2018,04,27,05,46,13.40
2018,04,27,05,47,13.40
2018,04,27,05,48,13.40
2018,04,27,05,49,13.40
2018,04,27,05,50,13.30
2018,04,27,05,51,13.30
2018,04,27,05,52,13.30
2018,04,27,05,53,13.30
2018,04,27,05,54,13.30
2018,04,27,05,55,13.30
2018,04,27,05,56,13.30
2018,04,27,05,57,13.30
2018,04,27,05,58,13.30
2018,04,27,05,59,13.30
2018,04,27,06,00,13.30
2018,04,27,06,01,13.30
2018,04,27,06,02,13.30
2018,04,27,06,03,13.20
2018,04,27,06,04,13.20
2018,04,27,06,05,13.20
2018,04,27,06,06,13.20
2018,04,27,06,07,13.20
2018,04,27,06,08,13.20
2018,04,27,06,09,13.10
2018,04,27,06,10,13.10
2018,04,27,06,11,13.10
2018,04,27,06,12,13.10
2018,04,27,06,13,13.10
2018,04,27,06,14,13.00
2018,04,27,06,15,13.00
2018,04,27,06,16,13.00
2018,04,27,06,17,13.00
2018,04,27,06,18,12.90
2018,04,27,06,19,12.90
2018,04,27,06,20,12.90
2018,04,27,06,21,12.90
2018,04,27,06,22,12.90
2018,04,27,06,23,12.80
2018,04,27,06,24,12.80
2018,04,27,06,25,12.80
2018,04,27,06,26,12.80
2018,04,27,06,27,12.80
2018,04,27,06,28,12.80
2018,04,27,06,29,12.70
2018,04,27,06,30,12.70
2018,04,27,06,31,12.70
2018,04,27,06,32,12.70
2018,04,27,06,33,12.70
2018,04,27,06,34,12.70
2018,04,27,06,35,12.70
2018,04,27,06,36,12.70
2018,04,27,06,37,12.70
2018,04,27,06,38,12.70
2018,04,27,06,39,12.70
2018,04,27,06,40,12.60
2018,04,27,06,41,12.60
2018,04,27,06,42,12.60
2018,04,27,06,43,12.60
2018,04,27,06,44,12.60
2018,04,27,06,45,12.60
2018,04,27,06,46,12.60
2018,04,27,06,47,12.60
2018,04,27,06,48,12.60
2018,04,27,06,49,12.70
2018,04,27,06,50,12.70
2018,04,27,06,51,12.70
2018,04,27,06,52,12.70
2018,04,27,06,53,12.70
2018,04,27,06,54,12.70
2018,04,27,06,55,12.70
2018,04,27,06,56,12.70
2018,04,27,06,57,12.70
2018,04,27,06,58,12.70
2018,04,27,06,59,12.70
2018,04,27,07,00,12.70
2018,04,27,07,01,12.70
2018,04,27,07,02,12.70
2018,04,27,07,03,12.70
2018,04,27,07,04,12.70
2018,04,27,07,05,12.70
2018,04,27,07,06,12.70
2018,04,27,07,07,12.70
2018,04,27,07,08,12.70
2018,04,27,07,09,12.70
2018,04,27,07,10,12.70
2018,04,27,07,11,12.70
2018,04,27,07,12,12.70
2018,04,27,07,13,12.80
2018,04,27,07,14,12.80
2018,04,27,07,15,12.80
2018,04,27,07,16,12.80
2018,04,27,07,17,12.80
2018,04,27,07,18,12.80
2018,04,27,07,19,12.80
2018,04,27,07,20,12.90
2018,04,27,07,21,12.90
2018,04,27,07,22,12.90
2018,04,27,07,23,12.90
2018,04,27,07,24,12.90
2018,04,27,07,25,12.90
2018,04,27,07,26,12.90
2018,04,27,07,27,13.00
2018,04,27,07,28,13.00
2018,04,27,07,29,13.00
2018,04,27,07,30,13.00
2018,04,27,07,31,13.10
2018,04,27,07,32,13.10
2018,04,27,07,33,13.10
2018,04,27,07,34,13.10
2018,04,27,07,35,13.20
2018,04,27,07,36,13.20
2018,04,27,07,37,13.20
2018,04,27,07,38,13.20
2018,04,27,07,39,13.30
2018,04,27,07,40,13.30
2018,04,27,07,41,13.30
2018,04,27,07,42,13.30
2018,04,27,07,43,13.30
2018,04,27,07,44,13.40
2018,04,27,07,45,13.40
2018,04,27,07,46,13.40
2018,04,27,07,47,13.40
2018,04,27,07,48,13.40
2018,04,27,07,49,13.40
2018,04,27,07,50,13.40
2018,04,27,07,51,13.40
2018,04,27,07,52,13.40
2018,04,27,07,53,13.40
2018,04,27,07,54,13.50
2018,04,27,07,55,13.50
2018,04,27,07,56,13.50
2018,04,27,07,57,13.60
2018,04,27,07,58,13.60
2018,04,27,07,59,13.60
2018,04,27,08,00,13.60
2018,04,27,08,01,13.60
2018,04,27,08,02,13.70
2018,04,27,08,03,13.70
2018,04,27,08,04,13.70
2018,04,27,08,05,13.70
2018,04,27,08,06,13.70
2018,04,27,08,07,13.70
2018,04,27,08,08,13.70
2018,04,27,08,09,13.70
2018,04,27,08,10,13.70
2018,04,27,08,11,13.80
2018,04,27,08,12,13.80
2018,04,27,08,13,13.80
2018,04,27,08,14,13.90
2018,04,27,08,15,13.90
2018,04,27,08,16,14.00
2018,04,27,08,17,14.00
2018,04,27,08,18,14.10
2018,04,27,08,19,14.20
2018,04,27,08,20,14.20
2018,04,27,08,21,14.30
2018,04,27,08,22,14.40
2018,04,27,08,23,14.40
2018,04,27,08,24,14.50
2018,04,27,08,25,14.60
2018,04,27,08,26,14.70
2018,04,27,08,27,14.70
2018,04,27,08,28,14.80
2018,04,27,08,29,14.90
2018,04,27,08,30,14.90
2018,04,27,08,31,15.00
2018,04,27,08,32,15.10
2018,04,27,08,33,15.10
2018,04,27,08,34,15.10
2018,04,27,08,35,15.10
2018,04,27,08,36,15.10
2018,04,27,08,37,15.10
2018,04,27,08,38,15.10
2018,04,27,08,39,15.10
2018,04,27,08,40,15.10
2018,04,27,08,41,15.00
2018,04,27,08,42,15.00
2018,04,27,08,43,14.90
2018,04,27,08,44,14.90
2018,04,27,08,45,14.90
2018,04,27,08,46,14.90
2018,04,27,08,47,14.90
2018,04,27,08,48,15.00
2018,04,27,08,49,15.00
2018,04,27,08,50,15.10
2018,04,27,08,51,15.10
2018,04,27,08,52,15.10
2018,04,27,08,53,15.10
2018,04,27,08,54,15.20
2018,04,27,08,55,15.20
2018,04,27,08,56,15.30
2018,04,27,08,57,15.30
2018,04,27,08,58,15.30
2018,04,27,08,59,15.30
2018,04,27,09,00,15.40
2018,04,27,09,01,15.30
2018,04,27,09,02,15.30
2018,04,27,09,03,15.30
2018,04,27,09,04,15.30
2018,04,27,09,05,15.30
2018,04,27,09,06,15.30
2018,04,27,09,07,15.20
2018,04,27,09,08,15.20
2018,04,27,09,09,15.20
2018,04,27,09,10,15.20
2018,04,27,09,11,15.20
2018,04,27,09,12,15.20
2018,04,27,09,13,15.20
2018,04,27,09,14,15.20
2018,04,27,09,15,15.20
2018,04,27,09,16,15.30
2018,04,27,09,17,15.30
2018,04,27,09,18,15.40
2018,04,27,09,19,15.40
2018,04,27,09,20,15.40
2018,04,27,09,21,15.40
2018,04,27,09,22,15.50
2018,04,27,09,23,15.60
2018,04,27,09,24,15.70
2018,04,27,09,25,15.70
2018,04,27,09,26,15.80
2018,04,27,09,27,15.80
2018,04,27,09,28,15.80
2018,04,27,09,29,15.80
2018,04,27,09,30,15.80
2018,04,27,09,31,15.90
2018,04,27,09,32,15.90
2018,04,27,09,33,15.90
2018,04,27,09,34,15.90
2018,04,27,09,35,15.90
2018,04,27,09,36,15.90
2018,04,27,09,37,16.00
2018,04,27,09,38,15.90
2018,04,27,09,39,15.80
2018,04,27,09,40,15.80
2018,04,27,09,41,15.90
2018,04,27,09,42,15.90
2018,04,27,09,43,15.90
2018,04,27,09,44,15.90
2018,04,27,09,45,16.00
2018,04,27,09,46,16.00
2018,04,27,09,47,16.10
2018,04,27,09,48,16.10
2018,04,27,09,49,16.20
2018,04,27,09,50,16.30
2018,04,27,09,51,16.40
2018,04,27,09,52,16.50
2018,04,27,09,53,16.50
2018,04,27,09,54,16.60
2018,04,27,09,55,16.60
2018,04,27,09,56,16.60
2018,04,27,09,57,16.60
2018,04,27,09,58,16.50
2018,04,27,09,59,16.30
2018,04,27,10,00,16.20
2018,04,27,10,01,16.10
2018,04,27,10,02,16.10
2018,04,27,10,03,16.10
2018,04,27,10,04,16.10
2018,04,27,10,05,16.10
2018,04,27,10,06,16.10
2018,04,27,10,07,16.10
2018,04,27,10,08,16.10
2018,04,27,10,09,16.00
2018,04,27,10,10,16.00
2018,04,27,10,11,16.00
2018,04,27,10,12,16.10
2018,04,27,10,13,16.10
2018,04,27,10,14,16.10
2018,04,27,10,15,16.10
2018,04,27,10,16,16.20
2018,04,27,10,17,16.30
2018,04,27,10,18,16.40
2018,04,27,10,19,16.50
2018,04,27,10,20,16.60
2018,04,27,10,21,16.70
2018,04,27,10,22,16.80
2018,04,27,10,23,16.90
2018,04,27,10,24,17.00
2018,04,27,10,25,17.00
2018,04,27,10,26,17.00
2018,04,27,10,27,16.90
2018,04,27,10,28,16.90
2018,04,27,10,29,17.00
2018,04,27,10,30,17.00
2018,04,27,10,31,17.00
2018,04,27,10,32,16.90
2018,04,27,10,33,17.00
2018,04,27,10,34,17.00
2018,04,27,10,35,17.10
2018,04,27,10,36,17.10
2018,04,27,10,37,17.10
2018,04,27,10,38,17.10
2018,04,27,10,39,17.10
2018,04,27,10,40,17.20
2018,04,27,10,41,17.20
2018,04,27,10,42,17.30
2018,04,27,10,43,17.30
2018,04,27,10,44,17.20
2018,04,27,10,45,17.20
2018,04,27,10,46,17.10
2018,04,27,10,47,17.10
2018,04,27,10,48,17.10
2018,04,27,10,49,17.10
2018,04,27,10,50,17.00
2018,04,27,10,51,17.00
2018,04,27,10,52,17.00
2018,04,27,10,53,17.00
2018,04,27,10,54,17.00
2018,04,27,10,55,17.10
2018,04,27,10,56,17.10
2018,04,27,10,57,17.10
2018,04,27,10,58,17.20
2018,04,27,10,59,17.20
2018,04,27,11,00,17.30
2018,04,27,11,01,17.30
2018,04,27,11,02,17.30
2018,04,27,11,03,17.20
2018,04,27,11,04,17.20
2018,04,27,11,05,17.10
2018,04,27,11,06,17.10
2018,04,27,11,07,17.20
2018,04,27,11,08,17.20
2018,04,27,11,09,17.30
2018,04,27,11,10,17.40
2018,04,27,11,11,17.50
2018,04,27,11,12,17.60
2018,04,27,11,13,17.70
2018,04,27,11,14,17.70
2018,04,27,11,15,17.70
2018,04,27,11,16,17.70
2018,04,27,11,17,17.70
2018,04,27,11,18,17.70
2018,04,27,11,19,17.70
2018,04,27,11,20,17.80
2018,04,27,11,21,17.80
2018,04,27,11,22,17.90
2018,04,27,11,23,17.90
2018,04,27,11,24,17.90
2018,04,27,11,25,17.90
2018,04,27,11,26,17.90
2018,04,27,11,27,17.90
2018,04,27,11,28,17.80
2018,04,27,11,29,17.80
2018,04,27,11,30,17.70
2018,04,27,11,31,17.70
2018,04,27,11,32,17.80
2018,04,27,11,33,17.80
2018,04,27,11,34,17.90
2018,04,27,11,35,17.90
2018,04,27,11,36,18.00
2018,04,27,11,37,18.10
2018,04,27,11,38,18.10
2018,04,27,11,39,18.10
2018,04,27,11,40,18.10
2018,04,27,11,41,18.10
2018,04,27,11,42,18.00
2018,04,27,11,43,18.00
2018,04,27,11,44,17.90
2018,04,27,11,45,17.80
2018,04,27,11,46,17.70
2018,04,27,11,47,17.60
2018,04,27,11,48,17.60
2018,04,27,11,49,17.60
2018,04,27,11,50,17.60
2018,04,27,11,51,17.60
2018,04,27,11,52,17.60
2018,04,27,11,53,17.60
2018,04,27,11,54,17.70
2018,04,27,11,55,17.70
2018,04,27,11,56,17.70
2018,04,27,11,57,17.70
2018,04,27,11,58,17.70
2018,04,27,11,59,17.70
2018,04,27,12,00,17.80
2018,04,27,12,01,17.80
2018,04,27,12,02,17.80
2018,04,27,12,03,17.90
2018,04,27,12,04,17.90
2018,04,27,12,05,18.00
2018,04,27,12,06,18.00
2018,04,27,12,07,18.00
2018,04,27,12,08,18.00
2018,04,27,12,09,17.90
2018,04,27,12,10,17.80
2018,04,27,12,11,17.80
2018,04,27,12,12,17.70
2018,04,27,12,13,17.60
2018,04,27,12,14,17.60
2018,04,27,12,15,17.50
2018,04,27,12,16,17.40
2018,04,27,12,17,17.30
2018,04,27,12,18,17.20
2018,04,27,12,19,17.20
2018,04,27,12,20,17.20
2018,04,27,12,21,17.20
2018,04,27,12,22,17.20
2018,04,27,12,23,17.10
2018,04,27,12,24,17.00
2018,04,27,12,25,17.00
2018,04,27,12,26,16.90
2018,04,27,12,27,16.90
2018,04,27,12,28,16.90
2018,04,27,12,29,16.90
2018,04,27,12,30,16.90
2018,04,27,12,31,17.00
2018,04,27,12,32,17.00
2018,04,27,12,33,17.10
2018,04,27,12,34,17.10
2018,04,27,12,35,17.10
2018,04,27,12,36,17.20
2018,04,27,12,37,17.20
2018,04,27,12,38,17.20
2018,04,27,12,39,17.20
2018,04,27,12,40,17.20
2018,04,27,12,41,17.30
2018,04,27,12,42,17.30
2018,04,27,12,43,17.30
2018,04,27,12,44,17.30
2018,04,27,12,45,17.30
2018,04,27,12,46,17.30
2018,04,27,12,47,17.30
2018,04,27,12,48,17.30
2018,04,27,12,49,17.30
2018,04,27,12,50,17.30
2018,04,27,12,51,17.30
2018,04,27,12,52,17.40
2018,04,27,12,53,17.50
2018,04,27,12,54,17.50
2018,04,27,12,55,17.60
2018,04,27,12,56,17.50
2018,04,27,12,57,17.50
2018,04,27,12,58,17.30
2018,04,27,12,59,17.20
2018,04,27,13,00,17.20
2018,04,27,13,01,17.20
2018,04,27,13,02,17.30
2018,04,27,13,03,17.40
2018,04,27,13,04,17.50
2018,04,27,13,05,17.60
2018,04,27,13,06,17.70
2018,04,27,13,07,17.80
2018,04,27,13,08,17.90
2018,04,27,13,09,18.00
2018,04,27,13,10,18.10
2018,04,27,13,11,18.20
2018,04,27,13,12,18.20
2018,04,27,13,13,18.20
2018,04,27,13,14,18.20
2018,04,27,13,15,18.20
2018,04,27,13,16,18.30
2018,04,27,13,17,18.30
2018,04,27,13,18,18.30
2018,04,27,13,19,18.30
2018,04,27,13,20,18.30
2018,04,27,13,21,18.20
2018,04,27,13,22,18.20
2018,04,27,13,23,18.20
2018,04,27,13,24,18.20
2018,04,27,13,25,18.20
2018,04,27,13,26,18.20
2018,04,27,13,27,18.20
2018,04,27,13,28,18.10
2018,04,27,13,29,18.10
2018,04,27,13,30,18.10
2018,04,27,13,31,18.20
2018,04,27,13,32,18.30
2018,04,27,13,33,18.40
2018,04,27,13,34,18.40
2018,04,27,13,35,18.30
2018,04,27,13,36,18.30
2018,04,27,13,37,18.30
2018,04,27,13,38,18.30
2018,04,27,13,39,18.40
2018,04,27,13,40,18.40
2018,04,27,13,41,18.40
2018,04,27,13,42,18.50
2018,04,27,13,43,18.50
2018,04,27,13,44,18.50
2018,04,27,13,45,18.60
2018,04,27,13,46,18.60
2018,04,27,13,47,18.60
2018,04,27,13,48,18.70
2018,04,27,13,49,18.60
2018,04,27,13,50,18.60
2018,04,27,13,51,18.60
2018,04,27,13,52,18.60
2018,04,27,13,53,18.70
2018,04,27,13,54,18.70
2018,04,27,13,55,18.70
2018,04,27,13,56,18.70
2018,04,27,13,57,18.70
2018,04,27,13,58,18.80
2018,04,27,13,59,18.80
2018,04,27,14,00,18.80
2018,04,27,14,01,18.80
2018,04,27,14,02,18.80
2018,04,27,14,03,18.90
2018,04,27,14,04,18.90
2018,04,27,14,05,18.80
2018,04,27,14,06,18.90
2018,04,27,14,07,19.00
2018,04,27,14,08,19.00
2018,04,27,14,09,19.10
2018,04,27,14,10,19.10
2018,04,27,14,11,19.20
2018,04,27,14,12,19.20
2018,04,27,14,13,19.20
2018,04,27,14,14,19.30
2018,04,27,14,15,19.30
2018,04,27,14,16,19.30
2018,04,27,14,17,19.30
2018,04,27,14,18,19.30
2018,04,27,14,19,19.40
2018,04,27,14,20,19.40
2018,04,27,14,21,19.40
2018,04,27,14,22,19.40
2018,04,27,14,23,19.40
2018,04,27,14,24,19.40
2018,04,27,14,25,19.40
2018,04,27,14,26,19.30
2018,04,27,14,27,19.30
2018,04,27,14,28,19.20
2018,04,27,14,29,19.20
2018,04,27,14,30,19.20
2018,04,27,14,31,19.10
2018,04,27,14,32,19.10
2018,04,27,14,33,19.10
2018,04,27,14,34,19.20
2018,04,27,14,35,19.30
2018,04,27,14,36,19.30
2018,04,27,14,37,19.40
2018,04,27,14,38,19.30
2018,04,27,14,39,19.30
2018,04,27,14,40,19.30
2018,04,27,14,41,19.40
2018,04,27,14,42,19.40
2018,04,27,14,43,19.40
2018,04,27,14,44,19.40
2018,04,27,14,45,19.50
2018,04,27,14,46,19.60
2018,04,27,14,47,19.70
2018,04,27,14,48,19.80
2018,04,27,14,49,19.90
2018,04,27,14,50,20.00
2018,04,27,14,51,20.00
2018,04,27,14,52,20.10
2018,04,27,14,53,20.10
2018,04,27,14,54,20.10
2018,04,27,14,55,20.20
2018,04,27,14,56,20.20
2018,04,27,14,57,20.30
2018,04,27,14,58,20.20
2018,04,27,14,59,20.20
2018,04,27,15,00,20.20
2018,04,27,15,01,20.20
2018,04,27,15,02,20.20
2018,04,27,15,03,20.30
2018,04,27,15,04,20.30
2018,04,27,15,05,20.40
2018,04,27,15,06,20.40
2018,04,27,15,07,20.30
2018,04,27,15,08,20.20
2018,04,27,15,09,20.10
2018,04,27,15,10,20.00
2018,04,27,15,11,19.80
2018,04,27,15,12,19.80
2018,04,27,15,13,19.60
2018,04,27,15,14,19.50
2018,04,27,15,15,19.50
2018,04,27,15,16,19.40
2018,04,27,15,17,19.40
2018,04,27,15,18,19.40
2018,04,27,15,19,19.50
2018,04,27,15,20,19.60
2018,04,27,15,21,19.70
2018,04,27,15,22,19.80
2018,04,27,15,23,19.80
2018,04,27,15,24,19.90
2018,04,27,15,25,20.00
2018,04,27,15,26,20.10
2018,04,27,15,27,20.20
2018,04,27,15,28,20.20
2018,04,27,15,29,20.20
2018,04,27,15,30,20.20
2018,04,27,15,31,20.20
2018,04,27,15,32,20.20
2018,04,27,15,33,20.20
2018,04,27,15,34,20.20
2018,04,27,15,35,20.20
2018,04,27,15,36,20.20
2018,04,27,15,37,20.30
2018,04,27,15,38,20.30
2018,04,27,15,39,20.40
2018,04,27,15,40,20.50
2018,04,27,15,41,20.50
2018,04,27,15,42,20.50
2018,04,27,15,43,20.40
2018,04,27,15,44,20.50
2018,04,27,15,45,20.50
2018,04,27,15,46,20.40
2018,04,27,15,47,20.30
2018,04,27,15,48,20.30
2018,04,27,15,49,20.40
2018,04,27,15,50,20.40
2018,04,27,15,51,20.40
2018,04,27,15,52,20.30
2018,04,27,15,53,20.20
2018,04,27,15,54,20.20
2018,04,27,15,55,20.10
2018,04,27,15,56,20.10
2018,04,27,15,57,20.10
2018,04,27,15,58,20.10
2018,04,27,15,59,20.10
2018,04,27,16,00,20.30
2018,04,27,16,01,20.30
2018,04,27,16,02,20.30
2018,04,27,16,03,20.20
2018,04,27,16,04,20.20
2018,04,27,16,05,20.10
2018,04,27,16,06,20.00
2018,04,27,16,07,20.00
2018,04,27,16,08,20.00
2018,04,27,16,09,19.90
2018,04,27,16,10,19.80
2018,04,27,16,11,19.70
2018,04,27,16,12,19.70
2018,04,27,16,13,19.70
2018,04,27,16,14,19.80
2018,04,27,16,15,19.80
2018,04,27,16,16,19.80
2018,04,27,16,17,19.70
2018,04,27,16,18,19.70
2018,04,27,16,19,19.60
2018,04,27,16,20,19.60
2018,04,27,16,21,19.60
2018,04,27,16,22,19.60
2018,04,27,16,23,19.60
2018,04,27,16,24,19.70
2018,04,27,16,25,19.70
2018,04,27,16,26,19.70
2018,04,27,16,27,19.70
2018,04,27,16,28,19.70
2018,04,27,16,29,19.70
2018,04,27,16,30,19.60
2018,04,27,16,31,19.40
2018,04,27,16,32,19.30
2018,04,27,16,33,19.40
2018,04,27,16,34,19.40
2018,04,27,16,35,19.50
2018,04,27,16,36,19.40
2018,04,27,16,37,19.30
2018,04,27,16,38,19.10
2018,04,27,16,39,19.00
2018,04,27,16,40,18.90
2018,04,27,16,41,18.70
2018,04,27,16,42,18.40
2018,04,27,16,43,18.40
2018,04,27,16,44,18.20
2018,04,27,16,45,18.20
2018,04,27,16,46,18.20
2018,04,27,16,47,18.10
2018,04,27,16,48,18.00
2018,04,27,16,49,17.90
2018,04,27,16,50,17.80
2018,04,27,16,51,17.80
2018,04,27,16,52,17.70
2018,04,27,16,53,17.70
2018,04,27,16,54,17.80
2018,04,27,16,55,17.70
2018,04,27,16,56,17.70
2018,04,27,16,57,17.70
2018,04,27,16,58,17.90
2018,04,27,16,59,17.90
2018,04,27,17,00,17.90
2018,04,27,17,01,17.80
2018,04,27,17,02,17.90
2018,04,27,17,03,17.80
2018,04,27,17,04,17.70
2018,04,27,17,05,17.60
2018,04,27,17,06,17.60
2018,04,27,17,07,17.40
2018,04,27,17,08,17.30
2018,04,27,17,09,17.20
2018,04,27,17,10,17.20
2018,04,27,17,11,17.10
2018,04,27,17,12,17.00
2018,04,27,17,13,17.00
2018,04,27,17,14,16.80
2018,04,27,17,15,16.70
2018,04,27,17,16,16.60
2018,04,27,17,17,16.70
2018,04,27,17,18,16.80
2018,04,27,17,19,16.80